{"data":{"norad_id":69921,"intl_designator":"2026-156BE","name":"TRANSPORTER-17 OBJECT BE","alt_names":[],"object_type":"PAYLOAD","status":"ACTIVE","operator":null,"country":"TBD","launch_date":"2026-07-07","launch_site_code":"AFWTR","launch_vehicle":null,"mission":null,"orbit_class":"UNKNOWN","rcs_meters":null,"size_class":null,"mass_kg":null,"dimensions":null,"purposes":[],"wikipedia_slug":null,"has_3d_model":false,"image_url":null,"decayed_at":null,"tle_current":{"epoch":"2026-09-20T04:25:06.463776Z","epoch_age_seconds":47681,"freshness":"FRESH","line1":"1 69921U 26156BE  26263.18410259  .00002177  00000+0  21879-3 0  9992","line2":"2 69921  97.7462 162.4307 0005062 272.8822  87.1818 14.92268118 11165","mean_motion":14.92268118,"eccentricity":0.0005062,"inclination_deg":97.7462,"raan_deg":162.4307,"arg_perigee_deg":272.8822,"mean_anomaly_deg":87.1818,"bstar":0.00021879,"rev_number":1116,"period_min":96.497404362558,"perigee_km":587.33748126539,"apogee_km":594.39289908272,"semimajor_km":6969.0021901741,"source":"CELESTRAK","updated_at":"2026-09-20T09:00:25.182269Z"}}}